Wetbulb
47.36 48.15 49.03 49.59 50.89 52.39 54.06 50.89 43.14 49.75 51.49 40.52 40.12 36.43 39.53 43.29 43.40 46.80 43.19 40.33 39.04 36.99 37.25 36.06 37.01 36.92 40.69 42.37 41.13 37.29 39.58 36.31 30.19 34.08 37.57 35.00 35.90 34.67 35.37 29.91 28.04 27.15 30.55 31.75
45.48 45.95 46.78 47.70 48.40 50.67 48.26 46.43 46.51 49.16 49.81 38.51 37.79 39.98 40.55 42.37 42.19 42.50 42.75 42.16 42.00 42.76 39.38 35.13 36.52 38.11 42.23 42.56 40.92 35.82 38.28 32.19 27.24 28.87 35.01 32.96 31.31 34.07 35.99 35.80 33.60 30.31 26.84 30.58
44.68 44.81 45.33 46.51 46.85 48.14 47.55 44.99 39.77 42.30 43.67 43.88 41.05 39.55 38.16 38.24 43.45 42.38 43.14 42.20 43.03 40.38 37.63 39.57 37.05 37.30 40.60 42.55 41.52 42.02 40.97 34.11 31.16 27.45 31.45 35.53 31.38 32.12 32.73 33.86 29.55 29.98 30.49 32.74
44.35 44.43 44.20 44.50 45.37 46.69 46.12 42.93 39.98 41.97 35.80 37.66 39.80 40.66 39.09 37.67 37.42 42.53 43.75 40.34 40.67 39.47 35.84 36.86 36.41 37.97 38.83 39.96 41.50 39.63 39.11 31.02 31.73 33.67 35.21 34.32 32.95 33.36 34.18 32.58 32.71 28.74 32.55 33.42
44.75 44.15 44.05 43.97 44.19 45.89 42.10 37.89 39.36 40.55 39.79 40.98 39.56 38.74 36.60 36.94 39.06 39.99 39.03 38.73 40.39 40.00 37.13 38.17 36.78 37.60 38.60 37.87 37.77 37.83 38.80 32.28 32.00 29.94 32.55 32.44 30.30 33.16 33.84 33.36 33.99 34.45 34.69 33.41
43.92 44.48 44.48 44.15 44.47 44.63 40.18 42.15 42.02 37.35 34.77 35.78 35.57 35.83 36.51 37.00 39.19 39.93 41.13 40.98 39.74 38.66 40.38 42.77 43.33 43.67 43.15 41.88 39.19 35.93 33.70 32.14 30.31 27.24 31.85 30.84 27.27 31.52 33.17 34.27 36.30 35.41 31.23 36.73
43.66 43.97 44.02 44.24 44.17 43.90 42.04 40.73 37.90 34.04 27.18 30.84 31.45 34.82 36.11 34.12 35.51 33.75 36.19 36.36 35.61 40.86 43.51 41.45 41.18 41.34 40.22 40.51 39.90 41.21 35.52 33.34 32.47 28.77 31.11 21.36 31.61 37.88 36.86 34.92 36.75 38.21 37.95 39.40
43.64 43.14 43.56 43.72 44.35 44.45 41.19 41.47 37.08 33.40 25.88 29.49 29.55 30.23 30.64 31.57 32.47 32.16 33.27 35.49 38.79 41.07 38.75 33.70 32.32 32.84 34.27 36.22 38.08 38.06 39.55 35.81 30.91 27.29 26.99 30.76 32.21 35.99 34.45 33.15 33.15 38.85 37.96 39.73
43.62 43.40 43.58 43.52 44.00 44.13 41.50 40.15 40.71 36.09 28.88 25.41 30.76 27.84 29.14 27.08 25.88 27.85 31.21 37.08 35.98 37.91 35.37 31.91 26.48 25.15 29.08 30.30 31.54 36.86 37.52 37.75 32.71 30.68 26.01 23.34 32.44 37.87 40.38 39.61 29.07 39.23 40.20 39.64
43.50 43.57 43.37 43.42 43.31 43.69 41.28 39.19 41.63 35.91 29.30 30.83 30.49 25.71 25.63 29.99 28.54 26.58 28.41 25.06 26.54 33.97 29.20 26.52 26.33 26.23 32.52 27.17 27.98 29.71 30.24 31.26 28.88 29.64 27.80 30.45 36.12 38.48 37.66 26.75 30.89 40.57 41.17 40.89
42.98 43.23 43.24 43.11 43.14 43.12 40.82 38.27 41.08 36.17 31.71 31.19 32.74 32.31 27.79 27.95 28.03 24.48 26.24 23.59 25.35 26.62 22.27 21.87 23.52 25.68 26.69 25.44 28.88 29.43 28.80 27.07 27.07 28.78 25.84 23.24 36.29 35.70 31.87 34.83 38.50 37.37 36.74 37.85
42.34 42.75 43.06 42.88 42.78 42.83 42.06 35.38 40.36 40.43 33.36 31.75 36.23 35.65 36.19 34.59 33.33 28.74 24.77 23.24 17.84 25.44 21.85 22.68 24.34 19.24 21.98 21.64 17.51 29.03 22.49 24.15 20.21 23.55 25.27 33.47 35.54 31.45 32.52 37.74 33.36 33.95 34.93 35.72
41.99 42.32 42.70 42.59 42.51 42.45 41.22 36.97 38.08 37.12 32.32 31.19 30.65 28.78 34.34 37.02 36.02 36.91 24.79 24.56 28.89 26.26 28.00 24.27 21.52 18.61 22.95 13.25 14.56 17.79 22.20 27.27 22.97 22.07 29.75 27.40 28.44 32.03 34.20 33.71 30.75 31.43 31.81 32.18
41.45 41.86 42.04 41.88 42.08 42.17 41.55 36.14 37.78 36.41 33.07 25.42 24.83 34.36 32.52 36.51 36.50 35.29 34.11 31.35 31.20 29.78 27.68 22.26 16.62 10.40 23.48 17.02 20.40 18.61 20.47 21.93 18.71 19.01 24.14 26.65 28.78 30.94 30.84 30.36 29.71 28.62 30.43 31.44
41.08 41.51 41.21 41.45 41.54 41.81 40.25 38.24 37.92 38.48 31.79 24.74 26.02 27.19 31.15 33.14 33.77 32.56 32.22 30.77 28.36 26.06 23.98 20.65 17.44 19.97 19.29 19.82 21.13 16.95 22.56 20.56 17.85 16.51 25.17 24.70 25.27 27.23 28.83 22.96 22.33 24.11 26.77 26.53
40.78 40.96 40.95 40.79 40.84 41.07 36.75 30.93 36.01 38.39 37.50 28.49 21.49 29.93 26.70 30.63 30.99 29.95 29.28 29.36 28.30 27.42 23.78 21.85 23.54 26.68 22.09 13.10 11.62 21.71 25.03 26.79 27.15 22.99 18.32 19.93 23.19 24.40 23.48 19.44 19.89 21.93 19.42 20.37
40.64 40.64 40.65 40.54 40.51 36.99 31.77 30.29 33.69 39.57 37.77 28.11 22.30 21.95 25.42 29.55 28.56 25.72 27.71 29.38 27.11 26.35 24.71 22.38 22.87 22.83 23.95 18.91 13.41 22.19 24.77 21.92 18.09 18.89 15.57 16.55 18.14 15.15 17.04 17.96 17.39 17.23 16.05 16.91
40.00 39.96 39.99 39.94 40.10 38.72 33.69 37.11 39.16 38.41 32.76 29.90 19.20 19.38 21.28 26.85 20.45 18.65 26.56 24.10 25.86 26.01 23.65 22.04 20.82 22.06 22.15 14.76 20.87 22.10 15.00 13.89 15.46 13.96 14.25 13.73 14.70 15.40 14.31 14.81 14.28 10.85 10.93 12.40
39.56 39.51 39.30 36.51 34.30 30.93 32.19 39.33 39.96 37.97 31.40 23.29 22.87 11.87 8.06 24.25 21.33 23.56 24.34 24.65 17.53 24.77 19.64 20.34 16.17 15.13 11.11 17.68 19.66 13.51 10.40 9.27 9.25 10.74 9.66 10.89 8.96 8.74 8.92 8.76 7.71 6.23 7.26 8.12
38.78 34.89 31.97 25.91 32.03 38.58 37.70 32.67 28.07 28.55 28.75 27.87 21.30 24.46 18.44 21.91 20.61 18.66 18.80 21.63 17.59 8.26 13.35 21.13 13.14 14.02 21.15 13.22 10.65 10.23 9.89 9.99 8.63 3.01 1.99 2.47 1.92 3.69 4.29 3.97 5.62 5.88 5.33 4.34
32.74 27.72 27.68 32.09 37.61 31.82 27.36 22.29 21.11 20.85 14.86 20.79 15.03 19.04 17.54 23.19 16.35 15.78 22.52 15.80 15.32 9.28 7.57 7.07 1.08 1.09 16.81 9.77 7.08 7.30 8.20 7.08 4.99 3.60 3.14 3.81 3.68 2.27 1.93 2.47 2.54 2.14 1.89 1.23
31.60 31.73 33.62 32.83 27.97 20.78 16.50 15.94 16.58 14.83 8.78 12.48 11.55 14.07 17.29 17.81 21.75 15.49 18.30 13.14 13.51 5.25 6.98 3.30 -1.96 13.08 4.52 1.12 0.71 1.59 2.65 0.23 -1.60 0.09 -0.39 0.65 1.10 0.90 0.39 0.16 -0.34 -0.35 1.02 1.48
33.79 29.17 25.37 23.97 22.18 15.75 13.96 11.41 10.04 3.35 8.19 8.57 8.71 8.04 15.27 17.36 21.57 19.70 16.33 12.44 10.50 7.97 3.49 0.62 5.91 1.77 -1.59 -4.26 -3.49 -3.58 -2.87 -3.39 -3.99 -4.09 -2.71 -2.94 -2.52 -0.76 -1.33 -2.16 -1.09 -0.56 -0.32 0.45
24.82 21.49 16.33 15.97 13.51 12.74 6.80 4.98 5.67 8.30 12.09 9.59 12.55 11.18 16.70 14.46 15.90 17.97 11.13 13.01 10.49 5.19 1.14 -0.58 -4.96 -7.97 -11.34 -6.87 -5.37 -8.16 -7.74 -7.77 -7.24 -7.17 -5.84 -4.09 -3.41 -2.96 -1.93 -1.61 -1.15 -1.06 -1.68 1.19
22.03 20.33 11.03 14.66 17.86 11.69 5.30 5.66 4.67 6.37 8.74 10.56 8.08 6.44 16.83 10.34 11.79 15.66 9.96 7.30 5.18 5.23 0.92 -9.66 -8.12 -6.62 -7.67 -7.84 -8.14 -9.24 -9.33 -8.86 -8.50 -6.13 -5.69 -4.89 -3.95 -3.82 -3.33 -2.35 -2.29 -0.43 0.58 -0.59
20.24 15.19 12.01 1.35 6.52 5.73 3.58 2.10 -0.60 5.25 8.69 10.45 9.90 8.31 10.81 8.36 9.63 6.61 1.42 -2.11 -1.47 -1.24 -16.76 -12.35 -8.21 -9.48 -9.26 -9.46 -9.36 -9.27 -9.01 -8.00 -6.35 -5.95 -5.54 -4.12 -3.79 -3.41 -2.52 -1.84 -0.31 0.93 0.84 -1.00
12.93 3.79 -0.27 -1.19 -3.89 -6.36 -6.14 -4.25 0.35 5.16 3.15 5.21 10.80 9.97 8.49 11.53 10.33 6.38 -7.61 -7.73 -16.56 -15.06 -12.39 -10.68 -13.07 -10.68 -10.19 -9.67 -9.50 -8.81 -7.97 -6.73 -6.89 -6.29 -4.52 -3.27 -1.67 -1.67 -2.74 -4.55 -1.96 0.63 0.82 -0.49
MSLP
1017.44 1017.19 1016.69 1016.52 1015.95 1015.30 1014.67 1014.80 1014.78 1014.52 1014.61 1015.73 1015.24 1014.06 1012.60 1011.61 1009.76 1010.19 1010.10 1010.03 1010.03 1010.05 1009.49 1008.66 1008.65 1007.07 1005.48 1006.25 1005.14 1005.92 1006.21 1006.72 1007.13 1006.02 1005.42 1005.64 1005.64 1005.57 1005.87 1005.51 1004.76 1004.01 1002.73 998.79
1017.13 1017.00 1016.63 1016.36 1016.26 1015.75 1015.76 1014.85 1014.30 1014.64 1014.21 1013.37 1013.42 1012.67 1011.83 1011.60 1010.09 1009.53 1009.31 1009.36 1009.34 1009.36 1009.31 1009.26 1008.76 1007.40 1006.05 1006.40 1007.03 1008.35 1008.64 1007.65 1007.55 1006.58 1006.36 1006.18 1006.21 1005.25 1005.10 1004.39 1003.89 1003.30 1001.57 999.17
1016.84 1016.99 1016.52 1016.94 1016.58 1016.26 1016.19 1014.94 1014.36 1014.26 1013.89 1012.65 1012.39 1012.03 1011.41 1011.05 1009.78 1009.49 1009.02 1008.83 1009.15 1009.33 1008.87 1008.65 1007.27 1007.31 1006.73 1006.14 1005.72 1006.69 1008.13 1009.60 1009.72 1008.41 1006.98 1006.92 1006.33 1005.32 1004.93 1004.60 1004.08 1002.64 1001.13 999.79
1016.83 1016.53 1016.49 1016.67 1016.74 1016.02 1016.32 1014.90 1013.01 1012.14 1012.82 1012.57 1011.81 1011.52 1010.75 1010.16 1009.21 1008.48 1008.10 1007.67 1008.00 1008.33 1008.00 1007.84 1007.05 1006.98 1006.24 1006.27 1006.37 1007.34 1008.09 1008.02 1008.73 1008.05 1007.62 1006.47 1005.94 1005.29 1004.90 1004.50 1003.69 1002.73 1000.76 999.27
1016.21 1016.15 1016.21 1016.30 1016.28 1016.35 1016.02 1014.82 1013.18 1012.85 1012.47 1011.92 1011.79 1011.32 1010.54 1009.55 1008.91 1009.11 1007.62 1006.75 1007.07 1007.03 1006.51 1006.28 1005.42 1005.64 1005.56 1005.32 1005.46 1006.45 1007.16 1006.63 1007.37 1007.11 1006.81 1006.32 1005.07 1004.23 1003.84 1002.34 1001.91 1001.11 999.88 998.96
1015.78 1016.12 1015.96 1015.92 1015.84 1016.34 1015.57 1014.48 1014.31 1014.37 1012.75 1012.45 1012.27 1010.89 1010.40 1009.83 1010.01 1009.37 1008.92 1008.00 1006.96 1006.19 1005.59 1005.41 1004.48 1004.39 1003.99 1004.47 1004.99 1006.17 1006.37 1006.03 1006.06 1004.92 1004.95 1004.78 1003.82 1003.04 1001.34 1001.04 999.86 998.83 998.25 995.83
1015.36 1015.39 1015.57 1015.52 1015.62 1015.27 1016.19 1015.65 1015.42 1014.96 1012.96 1013.01 1012.21 1011.65 1011.19 1011.09 1011.32 1010.78 1010.05 1009.84 1008.36 1007.20 1007.01 1006.02 1005.36 1004.56 1004.20 1004.36 1003.76 1004.15 1004.40 1004.91 1004.73 1003.10 1003.76 1000.89 999.51 999.89 1000.08 998.45 997.40 996.53 995.61 994.76
1014.77 1014.91 1014.80 1014.86 1015.09 1015.38 1015.46 1015.32 1015.69 1015.19 1013.69 1013.13 1012.23 1012.45 1011.63 1011.35 1011.27 1010.92 1010.37 1009.33 1009.21 1008.60 1008.23 1006.85 1005.32 1004.25 1003.47 1002.47 1002.54 1002.61 1002.53 1002.87 1002.52 1002.06 1000.33 998.54 997.96 997.58 997.06 996.59 994.35 994.79 994.88 993.89
1014.10 1014.12 1014.24 1014.34 1014.57 1014.54 1014.58 1014.57 1014.68 1015.00 1014.25 1012.45 1012.66 1012.61 1012.42 1012.25 1012.11 1011.25 1010.40 1009.49 1009.28 1009.02 1008.24 1007.07 1004.80 1003.77 1002.84 1002.79 1001.91 1001.32 1001.89 1001.67 1001.46 1000.66 998.41 996.73 996.01 996.43 995.98 994.77 993.52 994.78 992.88 991.65
1013.53 1013.58 1013.60 1013.52 1013.53 1013.70 1013.75 1013.76 1013.97 1014.46 1013.95 1012.40 1012.77 1012.47 1012.54 1012.67 1012.30 1011.79 1011.21 1011.06 1010.40 1009.83 1008.62 1007.21 1005.83 1004.13 1003.23 1002.12 1002.13 1002.32 1001.54 1001.09 999.93 998.60 997.17 996.44 996.22 995.80 995.87 995.90 993.61 993.90 993.96 993.12
1012.76 1012.71 1012.65 1012.55 1012.51 1012.66 1013.17 1013.04 1013.24 1013.74 1013.05 1011.96 1012.27 1012.00 1012.19 1012.17 1012.21 1012.07 1011.60 1011.57 1010.69 1010.18 1009.48 1008.28 1007.02 1005.35 1004.79 1003.87 1002.83 1002.26 1002.26 1001.18 1000.09 999.68 998.51 997.56 997.65 996.36 997.57 997.93 996.70 997.00 996.88 996.88
1011.87 1011.69 1011.60 1011.76 1011.71 1011.79 1012.22 1012.44 1012.55 1012.63 1012.79 1011.79 1011.58 1011.27 1010.94 1010.90 1010.97 1011.43 1011.51 1011.56 1011.41 1010.72 1010.30 1009.52 1008.45 1007.52 1007.23 1006.29 1004.97 1003.98 1004.06 1003.69 1003.19 1002.51 1000.11 999.45 999.03 999.64 999.59 999.74 998.61 998.43 998.14 997.77
1010.83 1010.85 1010.79 1010.86 1011.00 1011.06 1011.32 1011.54 1011.74 1012.13 1011.79 1011.19 1010.88 1010.10 1009.49 1009.80 1009.81 1010.14 1010.75 1010.84 1010.69 1010.53 1010.48 1010.49 1009.94 1008.94 1008.60 1007.68 1006.45 1005.78 1005.09 1004.17 1003.77 1003.07 1000.71 1000.30 999.19 997.75 998.21 999.82 999.58 999.15 998.56 998.76
1009.98 1010.14 1009.98 1010.02 1010.03 1010.19 1010.33 1010.59 1010.84 1011.47 1011.18 1010.32 1009.01 1008.53 1008.53 1008.33 1008.57 1009.01 1009.26 1009.44 1009.83 1010.16 1010.40 1010.49 1010.15 1009.80 1008.91 1008.22 1007.66 1007.27 1006.68 1005.36 1003.65 1002.44 1002.09 1000.66 1000.68 1000.22 1000.28 999.93 1000.45 999.09 999.57 999.58
1009.09 1009.10 1008.97 1009.02 1009.04 1009.12 1009.29 1009.47 1009.61 1010.08 1010.90 1009.40 1008.95 1008.58 1008.06 1007.93 1008.07 1008.26 1008.47 1008.76 1009.06 1009.67 1009.90 1009.87 1009.59 1009.04 1008.81 1008.04 1007.59 1006.94 1006.52 1005.35 1004.32 1002.94 1002.71 1002.41 1001.69 1001.53 1001.53 1001.39 1000.55 1001.13 1001.07 998.91
1008.05 1008.13 1008.04 1008.10 1008.22 1008.36 1008.92 1008.46 1007.94 1008.41 1009.21 1009.35 1008.26 1007.29 1006.96 1006.93 1007.25 1007.33 1007.72 1007.98 1008.22 1008.79 1009.03 1008.73 1008.22 1007.94 1007.86 1006.97 1006.21 1005.98 1005.65 1004.91 1004.37 1004.13 1004.72 1004.03 1003.32 1002.67 1002.34 1002.94 1002.74 1002.29 1001.37 1000.04
1007.01 1007.09 1007.06 1007.10 1007.13 1007.52 1007.91 1007.36 1006.94 1007.03 1008.38 1008.29 1007.66 1006.86 1005.94 1006.02 1006.48 1006.90 1007.10 1007.23 1007.46 1007.85 1008.02 1007.75 1007.38 1006.89 1006.79 1006.33 1005.85 1005.42 1005.03 1005.36 1005.85 1006.15 1005.98 1004.85 1004.50 1004.97 1004.37 1004.00 1003.56 1002.96 1001.95 1001.29
1006.10 1006.10 1006.11 1006.06 1006.07 1006.20 1006.03 1005.95 1006.57 1007.16 1007.80 1007.86 1006.99 1006.32 1006.47 1006.25 1006.87 1006.97 1006.38 1006.61 1006.66 1006.81 1006.69 1006.51 1006.28 1006.18 1006.10 1005.65 1005.18 1005.61 1006.50 1006.89 1006.79 1007.43 1007.96 1007.82 1006.84 1006.18 1005.57 1005.16 1004.64 1003.65 1002.40 1001.41
1005.13 1005.23 1005.27 1005.36 1005.17 1005.18 1004.87 1004.93 1005.24 1006.16 1007.25 1006.72 1006.38 1006.49 1006.42 1006.25 1006.23 1005.99 1006.10 1006.11 1006.24 1005.80 1005.81 1005.67 1006.02 1006.10 1005.65 1005.02 1005.87 1006.98 1007.96 1008.64 1008.61 1008.09 1008.31 1007.64 1007.51 1006.95 1005.97 1005.67 1005.15 1004.77 1002.98 1002.04
1004.59 1005.05 1005.42 1004.59 1004.11 1003.66 1004.30 1005.12 1005.73 1005.96 1005.79 1005.69 1005.63 1005.92 1006.29 1006.27 1005.96 1005.97 1006.36 1005.77 1005.97 1005.61 1005.63 1005.46 1005.76 1005.60 1005.45 1006.57 1007.53 1008.44 1009.18 1009.67 1010.09 1009.87 1008.54 1008.42 1007.77 1007.45 1006.20 1005.57 1005.66 1005.27 1004.12 1002.65
1004.63 1004.85 1004.34 1003.94 1003.79 1004.12 1004.29 1005.15 1005.78 1006.01 1006.23 1005.80 1005.45 1005.48 1005.44 1004.83 1005.22 1005.54 1005.50 1005.36 1005.45 1005.61 1005.57 1006.03 1006.35 1006.35 1007.01 1008.28 1009.22 1010.07 1010.58 1010.98 1011.26 1011.35 1010.85 1010.37 1009.60 1008.26 1006.83 1004.91 1005.45 1005.05 1004.31 1003.21
1003.85 1004.06 1004.01 1003.87 1003.95 1004.21 1004.89 1005.40 1006.07 1006.24 1006.16 1005.68 1005.45 1005.30 1005.15 1004.86 1004.47 1005.01 1005.07 1005.28 1005.59 1005.68 1005.58 1006.98 1007.41 1007.84 1009.38 1010.57 1011.36 1011.78 1011.99 1011.97 1011.80 1011.62 1010.72 1009.99 1009.49 1008.78 1007.59 1006.24 1004.96 1004.49 1003.58 1002.57
1003.70 1003.97 1003.88 1003.78 1003.63 1003.97 1004.99 1005.71 1006.63 1006.62 1006.00 1005.85 1005.74 1005.68 1005.28 1004.99 1004.84 1005.04 1004.97 1005.06 1005.44 1005.65 1007.21 1008.15 1008.56 1010.04 1011.49 1012.50 1012.87 1012.74 1012.68 1012.33 1011.93 1011.19 1010.62 1009.73 1008.60 1008.03 1007.32 1005.81 1005.04 1003.91 1002.77 1001.73
1003.06 1003.20 1003.35 1003.84 1004.33 1005.04 1005.45 1005.84 1006.28 1006.54 1006.39 1006.56 1006.39 1006.04 1005.59 1005.11 1005.04 1004.56 1004.82 1004.93 1005.65 1007.15 1008.76 1009.44 1010.74 1012.66 1013.35 1013.64 1013.64 1013.41 1012.65 1012.38 1011.71 1010.91 1009.89 1008.89 1007.97 1006.81 1006.13 1005.29 1004.29 1003.14 1002.00 1000.76
1002.71 1003.49 1004.16 1004.74 1005.19 1006.13 1006.89 1007.27 1007.36 1008.24 1007.76 1007.46 1007.05 1006.51 1005.83 1005.50 1005.43 1005.07 1005.55 1006.55 1007.68 1009.01 1010.52 1011.95 1013.35 1013.98 1014.20 1014.17 1014.01 1013.68 1013.05 1012.31 1011.43 1010.41 1009.31 1008.24 1007.30 1006.31 1005.13 1004.39 1003.52 1002.38 1001.33 1000.45
1002.99 1004.19 1005.65 1006.50 1007.18 1008.22 1008.76 1009.19 1009.72 1009.79 1008.93 1008.26 1007.91 1007.24 1006.56 1006.06 1005.93 1006.59 1007.71 1009.03 1010.01 1011.55 1013.52 1014.56 1014.76 1014.80 1014.76 1014.48 1014.04 1013.44 1012.75 1011.91 1010.82 1009.84 1008.82 1007.69 1006.67 1005.69 1004.64 1003.77 1002.76 1001.78 1000.99 1000.35
1004.42 1006.69 1007.96 1008.88 1009.83 1010.76 1011.51 1011.57 1011.37 1010.82 1010.22 1009.58 1008.85 1008.30 1007.62 1007.08 1007.71 1009.01 1010.26 1011.92 1013.73 1014.74 1015.25 1015.54 1015.77 1015.31 1014.68 1014.21 1013.53 1012.78 1012.02 1011.10 1010.22 1009.14 1007.99 1006.95 1006.04 1005.24 1004.34 1003.37 1002.42 1001.59 1001.04 1000.63
Wind_Speed
11 11 12 14 16 19 2 2 4 6 12 5 5 10 8 12 20 13 5 2 9 13 11 16 25 26 20 19 2 10 9 2 6 16 8 2 6 11 13 12 17 5 12 27
11 14 13 12 14 15 4 4 2 5 4 9 9 5 19 18 18 17 6 12 13 15 16 10 12 15 12 6 6 5 11 4 2 9 15 2 5 6 11 11 11 18 19 23
9 10 11 13 11 10 3 4 4 3 4 3 9 14 12 18 15 21 21 19 15 14 17 18 10 12 14 15 9 16 9 3 10 14 17 15 13 12 11 13 11 20 21 25
10 11 9 9 10 9 2 4 6 7 4 7 16 14 6 18 21 22 15 9 26 23 17 20 22 21 28 17 15 4 7 12 19 24 25 25 23 24 25 23 19 22 25 29
13 11 11 10 9 10 3 4 3 5 4 10 14 16 18 28 27 23 21 27 23 20 25 27 28 20 20 20 3 13 11 11 14 25 32 32 30 29 25 32 31 32 34 30
11 12 10 9 8 4 3 2 3 1 8 11 8 13 14 7 13 16 23 27 26 25 26 22 27 26 25 19 10 7 7 8 9 19 23 27 26 34 38 35 32 30 31 38
14 13 12 10 10 7 2 2 3 2 11 9 13 14 7 9 11 8 8 14 17 10 16 19 16 19 18 22 22 19 17 19 15 19 16 25 17 22 32 38 35 34 34 37
15 13 14 12 14 13 5 3 3 3 6 9 17 16 17 16 17 17 17 19 12 11 11 10 16 7 9 20 27 27 24 23 15 15 20 24 4 25 26 23 34 34 30 32
17 16 16 14 15 15 7 5 4 3 4 9 10 9 9 10 11 15 16 6 6 5 4 7 13 15 14 7 5 17 26 26 22 19 22 25 16 22 25 29 21 13 25 29
19 17 17 17 15 15 9 4 6 4 6 10 10 8 7 5 10 12 8 5 7 1 6 13 16 18 8 10 12 8 7 15 25 24 21 13 4 16 9 17 21 21 23 25
18 19 19 18 17 16 9 6 8 7 4 12 10 12 12 8 8 10 2 6 2 4 10 11 16 14 7 10 13 15 9 10 9 15 20 29 16 9 15 16 17 21 21 20
20 20 20 19 19 18 15 8 6 8 7 5 4 9 10 11 14 11 3 3 2 4 4 6 6 8 8 8 7 1 7 2 5 7 7 9 9 12 18 10 13 13 14 17
21 22 22 20 20 19 15 8 5 3 5 7 9 13 20 17 18 11 4 4 6 5 5 3 5 9 4 4 4 14 10 14 8 15 2 25 32 28 14 15 14 14 10 12
21 23 22 20 20 20 17 7 5 5 3 5 6 1 6 6 11 15 14 15 10 8 4 4 3 2 6 8 9 9 11 18 14 23 21 22 15 15 20 23 18 16 18 15
23 24 23 20 20 19 13 7 6 8 7 4 2 1 6 6 7 13 13 14 14 8 7 6 7 3 5 6 12 12 12 15 14 18 21 20 23 20 18 16 17 15 14 18
23 23 22 20 20 20 6 5 8 11 10 5 5 4 8 10 15 15 14 12 11 9 4 4 6 13 8 6 9 13 15 19 18 19 13 14 15 12 13 17 20 17 19 19
22 22 22 22 21 9 8 3 3 9 9 5 5 4 5 10 6 3 5 9 6 7 9 8 12 12 12 12 15 21 20 10 12 10 14 10 8 12 22 18 19 20 20 17
21 21 21 21 22 19 13 12 11 7 2 3 3 2 1 5 3 3 5 5 6 6 7 4 7 7 9 10 21 11 7 11 10 10 10 12 19 16 19 17 16 21 21 21
19 19 19 13 6 6 4 11 19 7 5 3 4 5 5 3 3 2 1 2 4 5 8 11 2 6 8 13 8 1 3 4 13 17 12 10 12 18 20 18 18 18 22 22
15 5 2 4 4 8 15 2 3 4 3 4 2 2 2 3 4 4 2 3 4 3 6 3 5 12 18 3 4 3 4 7 10 12 14 16 20 16 23 23 18 17 20 24
2 3 5 1 10 2 2 4 5 4 2 3 4 7 6 3 5 5 4 4 3 4 7 6 4 4 3 6 5 6 8 9 10 10 14 17 18 21 23 26 20 19 20 21
4 2 1 2 4 2 4 5 3 3 7 3 4 4 4 3 3 3 3 4 2 6 2 4 3 5 7 7 7 9 10 11 13 12 17 18 20 19 20 23 23 21 21 21
3 3 4 4 3 6 6 7 3 3 3 3 1 2 2 1 2 3 4 6 6 2 2 6 6 6 7 6 7 9 10 10 13 16 16 19 20 18 18 21 19 21 20 19
4 4 7 6 4 4 5 4 4 1 3 3 1 1 3 4 3 5 4 6 2 3 3 7 3 4 4 6 8 10 15 14 16 17 18 19 19 19 19 17 17 18 19 18
3 3 4 3 2 4 2 1 4 3 2 2 1 2 3 3 3 4 2 2 5 6 6 2 4 8 8 11 11 12 14 14 16 16 17 18 19 18 19 16 16 16 12 13
2 1 1 1 3 1 3 4 3 4 3 2 1 2 3 6 4 4 7 4 7 3 2 3 7 9 11 12 13 13 13 15 16 16 17 17 17 17 17 16 13 11 9 9
2 2 3 1 4 3 2 2 2 4 2 1 2 5 7 3 5 4 3 3 2 3 6 4 4 11 15 14 14 13 15 15 15 15 15 16 15 14 12 13 13 11 8 7
Wind_Direction
339 338 354 359 358 347 193 199 245 144 150 158 191 222 209 227 254 248 248 192 231 258 297 293 286 290 286 358 185 170 205 198 258 241 225 262 232 214 201 217 239 238 234 261
347 342 340 337 355 21 328 243 237 186 190 226 219 259 235 237 263 248 227 228 211 233 254 257 252 269 275 330 35 54 353 303 269 282 298 4 229 240 251 255 253 245 243 253
325 336 342 344 341 359 329 287 247 182 235 227 232 235 236 244 239 253 251 259 259 247 251 240 246 244 261 255 210 147 89 284 273 259 261 288 285 257 241 239 254 258 255 271
303 316 317 324 330 336 300 231 238 171 197 247 246 240 200 240 248 236 240 224 228 235 245 251 246 242 256 259 265 230 167 227 223 238 245 260 262 259 273 272 256 251 269 267
305 300 307 313 314 327 243 271 309 5 288 267 250 236 252 253 259 248 241 235 241 234 235 236 250 224 236 242 276 203 189 227 214 235 241 251 260 265 260 252 255 255 252 258
291 292 295 299 306 311 270 295 51 348 264 264 269 250 265 263 271 271 280 280 275 269 257 249 245 252 263 267 229 210 200 201 205 242 236 243 248 242 249 256 250 243 250 249
283 285 286 291 284 277 279 8 310 245 267 265 261 278 285 306 308 287 294 308 298 310 321 317 311 282 267 260 250 221 226 230 237 252 246 229 226 228 232 243 248 249 248 251
281 272 280 281 274 266 250 225 181 235 265 262 269 279 284 307 298 285 279 283 267 293 305 287 279 265 251 242 232 232 228 234 247 243 238 259 222 217 221 228 240 244 257 257
277 273 267 266 264 266 258 244 202 216 281 238 270 291 306 299 298 295 279 327 339 280 269 248 256 254 259 249 267 227 234 232 235 241 249 251 237 235 245 258 260 241 240 247
277 274 276 262 260 260 261 242 222 224 256 260 243 247 268 296 288 281 296 330 331 264 261 264 267 268 268 247 259 236 224 228 242 239 244 250 237 270 303 244 263 268 263 262
277 272 272 272 262 256 253 251 220 218 247 264 253 261 258 255 249 275 348 342 296 272 253 266 274 279 309 303 291 276 270 277 255 258 266 266 4 303 248 335 357 2 356 350
275 277 272 269 270 263 244 259 242 232 231 267 320 268 251 246 248 261 237 241 308 242 288 313 333 317 308 298 279 345 271 350 308 309 330 321 338 333 312 307 331 337 327 316
273 274 271 270 268 262 251 245 240 236 238 247 232 234 238 247 240 234 230 258 224 240 231 276 273 263 351 296 302 319 301 296 305 324 311 311 316 317 0 0 337 324 325 305
273 271 270 264 264 265 259 242 230 212 257 260 252 311 217 228 222 222 214 240 262 271 258 249 251 228 227 260 276 279 284 307 295 283 283 299 301 324 325 327 329 354 339 318
267 265 265 271 273 267 265 246 222 198 224 291 283 164 229 230 210 221 227 228 237 240 251 239 248 245 256 249 267 267 263 266 279 285 298 302 311 325 329 346 337 328 317 327
263 266 267 266 268 267 267 246 206 194 197 248 253 233 229 227 214 222 222 221 231 227 222 238 223 231 244 249 248 260 267 268 276 303 349 309 301 324 344 334 314 322 319 312
262 266 268 269 269 258 224 247 141 179 185 221 237 233 232 212 209 210 224 226 218 213 232 228 244 248 255 265 268 270 270 324 326 14 355 331 354 318 311 313 314 315 308 298
263 266 270 275 272 267 251 235 204 136 173 261 270 227 107 163 181 223 187 203 207 211 225 234 240 252 255 259 261 282 14 336 309 353 332 290 290 298 301 306 316 314 306 311
266 271 284 285 255 229 216 199 214 182 197 234 212 175 236 147 234 181 44 211 237 224 225 238 216 238 235 252 290 301 13 325 304 313 311 300 308 301 303 310 317 308 303 309
274 286 236 236 196 167 114 87 162 204 230 224 200 91 210 172 194 208 190 210 214 224 234 229 211 247 259 77 105 67 341 339 338 333 328 329 308 308 307 306 306 302 302 303
99 214 225 143 171 203 139 177 199 166 233 231 226 188 221 236 187 207 222 205 219 210 242 167 244 262 222 112 72 11 343 331 325 308 288 290 290 299 303 302 305 301 297 294
178 173 299 181 188 182 154 189 131 203 211 240 173 218 178 278 103 128 239 210 229 238 197 101 258 232 90 50 357 330 320 315 300 292 292 291 290 291 289 292 298 299 296 296
149 202 205 206 194 199 194 161 178 189 193 226 200 258 175 287 224 207 225 222 226 78 121 213 217 89 46 357 327 312 310 302 301 298 291 290 290 292 290 292 292 295 297 296
200 221 201 197 169 226 193 183 153 220 76 85 134 219 186 214 208 233 228 236 92 225 237 229 75 25 310 316 318 318 316 313 304 300 297 299 301 300 299 294 297 300 296 299
226 164 227 216 79 66 37 320 82 20 324 351 344 335 222 230 255 228 237 261 231 213 224 56 347 335 322 319 317 310 307 307 302 301 304 304 303 304 303 304 302 293 305 307
145 168 189 1 50 94 56 7 78 357 347 336 22 280 261 226 204 190 222 199 223 263 3 307 320 317 313 310 309 305 299 298 300 302 302 301 305 305 305 308 308 311 311 324
126 104 29 57 85 97 98 318 32 338 330 225 274 220 220 326 247 227 36 236 349 321 315 305 302 304 310 308 303 305 305 304 304 301 304 307 309 308 311 324 327 330 345 355